Dewpoint
65 66 66 68 68 69 69 69 68 69 69 69 69 68 69 69 69 69 69 68 67 67 68 67 67 67 63 63 65 65 65 66 66 66 66 67 67 67 67 67 67 67 66 66 66 66 67 67 67 67 68 68 67 67 67 67 68 68 68 68 67 67 67 67 67 66 66 66 65 65 65 65 65 65 64 63 63 63 63 62 62 62 61 60 60
65 65 65 66 67 68 69 69 69 69 69 69 69 67 68 68 68 68 68 67 66 67 67 67 67 68 65 64 65 65 65 65 65 66 66 66 67 68 67 67 68 67 68 66 66 66 67 66 67 68 67 67 67 66 67 67 67 68 68 68 68 67 67 67 67 66 66 65 65 65 65 66 65 65 63 63 63 63 63 62 62 61 60 60 60
65 65 65 65 65 66 67 68 69 69 68 68 67 67 67 68 68 68 67 65 67 67 67 66 67 67 66 63 65 66 65 65 65 65 65 66 66 68 66 67 67 67 67 68 66 66 66 67 67 67 67 68 68 67 67 67 67 68 68 68 67 67 67 67 67 67 66 66 65 65 66 66 65 65 64 63 64 63 63 62 62 61 60 59 59
65 65 65 64 64 65 66 67 68 68 68 68 67 67 66 66 67 67 67 67 66 66 67 67 66 66 64 63 64 65 65 65 65 65 65 66 66 67 68 67 67 67 67 68 67 66 66 67 67 67 67 68 68 67 67 67 67 68 68 68 67 67 67 67 67 67 67 66 65 65 66 65 65 64 64 63 63 63 63 62 62 61 61 59 58
65 65 66 64 64 65 66 66 66 66 66 67 66 67 67 67 66 67 67 66 66 65 66 66 66 67 65 64 66 65 65 65 65 66 66 66 66 66 67 68 68 67 66 67 67 67 66 67 67 67 67 67 68 68 67 66 68 68 68 68 67 67 67 67 67 67 66 66 66 65 66 66 65 64 64 63 63 63 62 62 61 61 61 59 59
66 65 65 64 64 64 65 65 65 65 65 66 66 66 66 66 65 66 66 66 65 65 66 65 66 66 66 65 66 66 66 65 65 65 66 66 66 66 66 67 67 67 67 67 67 67 66 66 67 67 67 66 67 66 66 66 67 68 68 68 67 67 67 67 67 66 66 66 66 65 66 65 65 64 64 63 63 63 62 62 61 61 61 60 59
66 65 65 64 64 64 64 65 65 65 65 65 65 65 65 64 65 65 65 65 65 66 65 65 65 65 66 66 65 66 65 65 65 65 65 66 66 66 66 66 66 67 67 68 67 67 67 67 67 67 67 67 67 67 66 66 67 66 67 67 67 67 67 66 66 67 66 66 66 65 65 65 65 64 64 63 63 63 63 62 61 61 61 60 60
66 66 65 65 65 66 66 65 65 65 65 65 65 64 65 64 65 65 64 63 64 65 65 65 65 65 66 66 66 66 66 65 65 65 65 66 66 65 65 65 66 66 67 67 68 68 65 67 67 67 67 67 67 66 66 66 66 66 66 66 66 66 67 67 67 66 66 67 66 65 65 65 65 64 64 63 63 63 63 62 62 61 61 61 61
66 66 65 65 66 66 66 65 65 64 65 65 64 64 64 64 64 64 64 64 64 64 65 64 64 64 65 65 65 66 65 65 65 65 65 65 65 65 65 65 66 68 67 66 67 67 67 67 67 67 67 67 67 66 67 67 66 66 65 66 66 66 67 67 67 66 66 66 66 66 65 65 65 64 64 64 63 62 63 63 62 61 60 61 61
65 67 67 66 66 66 65 65 65 65 64 64 64 65 65 64 64 65 65 64 64 64 64 64 64 64 64 65 65 66 65 65 66 66 65 65 65 65 65 65 66 66 66 66 66 67 67 67 67 68 67 67 67 67 67 67 67 67 65 65 66 66 66 67 67 66 66 66 66 65 65 65 64 65 64 65 64 63 62 63 62 61 60 60 61
64 65 66 67 66 66 66 65 65 64 65 64 64 64 64 64 64 64 65 65 65 64 65 64 64 64 64 65 66 65 66 66 66 66 66 65 65 65 65 65 65 65 65 65 65 66 66 67 68 68 68 67 67 67 66 66 66 66 65 64 65 65 66 66 67 67 66 66 66 66 66 65 65 65 64 64 64 63 62 63 63 62 61 60 61
63 64 64 65 65 65 65 66 65 64 64 64 64 64 64 63 63 64 64 65 65 64 64 64 63 64 64 65 65 65 65 66 66 65 65 65 66 66 65 65 64 65 65 65 65 65 66 66 68 67 67 67 67 67 67 66 66 66 65 65 65 65 65 66 67 67 67 66 66 66 66 66 65 65 65 65 64 64 63 63 63 62 61 60 60
62 63 63 64 65 66 66 65 65 64 64 63 64 64 64 64 64 65 64 64 63 64 64 64 63 62 64 64 65 65 66 65 65 65 65 66 66 66 65 65 65 64 64 65 65 65 65 65 66 66 67 67 67 67 67 66 66 67 66 65 64 65 65 65 66 66 66 66 66 66 66 65 65 65 65 65 64 64 63 63 62 63 62 61 60
61 62 63 63 63 65 66 65 65 64 64 64 64 65 64 64 64 64 64 64 63 64 64 64 61 61 61 61 63 65 65 65 64 64 65 66 66 66 65 65 65 64 64 64 64 65 65 65 65 65 66 66 67 67 67 67 67 67 67 66 65 65 65 65 65 66 66 66 66 66 66 66 66 65 65 65 65 64 64 64 63 63 62 61 61
60 62 62 62 63 64 64 66 65 65 65 64 64 64 64 64 64 64 63 64 64 64 64 64 61 62 62 61 60 60 62 64 64 64 64 65 65 65 65 65 65 65 64 64 64 64 64 64 64 65 65 65 66 67 67 67 67 67 67 66 66 65 64 63 64 65 65 66 66 66 66 66 65 65 65 65 65 64 64 64 63 62 62 62 62
60 61 62 62 62 63 64 65 65 65 65 64 64 64 64 64 64 64 63 62 63 63 64 63 63 62 59 59 60 59 58 60 62 64 65 64 65 65 65 64 65 65 64 64 64 64 64 64 64 64 64 65 65 66 67 67 67 67 67 67 66 66 66 64 64 64 65 65 66 66 66 66 66 66 66 65 65 64 64 64 64 63 62 62 63
60 61 62 63 63 63 63 64 65 65 65 65 64 64 64 64 64 64 63 62 62 63 64 64 63 65 62 60 58 57 57 59 62 62 64 63 64 64 65 65 64 64 64 64 64 64 64 64 64 64 64 64 64 65 66 66 67 67 66 67 67 67 66 66 65 65 65 65 65 65 65 65 66 66 65 65 65 65 64 64 64 64 63 62 63
59 61 61 63 64 64 63 64 65 65 65 65 65 64 64 64 64 64 63 63 63 62 62 64 64 64 64 64 61 58 58 60 61 58 63 64 63 63 64 64 65 65 64 64 64 64 64 64 64 64 64 64 64 64 65 65 66 67 67 66 67 67 67 67 66 65 65 64 64 65 65 65 65 65 65 66 66 66 65 64 64 64 64 63 63
58 60 61 62 64 64 64 64 64 65 65 65 64 64 64 64 64 64 64 64 63 62 62 62 63 63 64 64 64 64 62 61 59 58 58 61 63 63 63 64 64 64 65 64 64 64 64 64 64 63 63 63 63 64 65 65 65 66 66 66 66 67 67 67 67 66 65 64 64 63 64 65 65 66 65 66 66 65 65 65 64 64 64 64 63
58 59 61 62 63 65 65 64 64 65 66 65 64 64 64 64 65 64 65 64 63 62 62 63 62 62 63 63 64 64 63 62 60 59 59 58 59 62 63 63 63 63 64 65 65 64 64 64 64 63 63 62 63 63 64 64 65 66 66 67 67 67 67 67 67 66 65 65 64 64 64 63 64 65 65 65 65 65 65 65 65 65 65 64 64
57 59 61 61 63 64 65 65 65 65 66 65 65 64 64 63 64 64 64 64 64 63 63 62 62 62 62 63 63 63 62 62 62 60 59 58 58 60 61 63 63 63 63 64 65 65 64 64 64 64 63 63 63 62 62 63 64 65 65 66 66 66 67 67 67 66 66 65 64 64 64 63 63 64 64 65 65 65 66 65 65 65 65 65 64
57 58 59 61 62 63 64 64 65 65 66 65 65 64 64 64 63 64 64 64 64 64 63 63 63 63 63 63 62 62 61 61 61 60 60 59 58 58 60 61 60 62 63 63 64 65 65 64 64 64 64 63 62 62 62 62 63 63 64 65 66 66 67 67 66 66 66 66 65 65 64 64 64 63 64 64 65 65 65 65 65 65 65 65 65
57 58 59 60 61 63 63 63 64 64 65 64 65 65 64 64 63 63 64 64 64 64 63 63 63 63 63 63 62 62 61 61 61 61 60 58 58 57 59 61 61 61 62 64 63 64 65 65 64 64 64 64 63 62 62 62 62 61 62 64 66 66 67 67 67 66 66 66 66 66 65 64 64 63 63 64 64 65 65 65 66 65 65 65 65
57 57 58 59 60 62 62 63 63 64 64 64 64 65 65 64 64 63 64 64 64 64 63 63 63 63 63 63 63 63 62 61 62 61 61 60 59 58 59 60 61 61 61 62 64 64 65 65 65 65 65 64 64 63 62 62 61 61 62 62 64 66 67 67 67 67 66 66 66 66 66 65 64 64 64 64 64 64 65 66 66 65 65 65 65
55 56 57 58 60 60 61 62 62 63 63 64 64 64 64 63 62 62 63 63 63 63 63 63 63 63 63 64 64 64 63 63 63 62 62 61 60 58 59 60 60 60 61 63 63 63 64 64 65 65 65 65 65 64 64 63 62 61 61 61 62 64 66 67 67 67 67 66 66 66 66 66 66 65 64 63 63 64 64 65 66 66 66 66 66
55 56 57 58 59 60 60 61 62 63 63 63 63 64 64 63 63 63 62 63 64 63 63 63 63 64 64 64 64 64 64 64 64 63 62 60 60 59 59 60 60 60 61 61 63 63 64 64 65 65 66 66 65 65 65 63 63 62 61 61 62 62 63 65 67 68 68 67 66 65 65 66 67 66 64 64 64 64 64 64 66 66 66 66 66
55 56 57 57 58 59 60 60 61 62 62 63 63 64 63 63 63 63 63 64 64 64 63 63 63 63 64 64 64 65 65 65 65 64 63 61 60 59 60 60 60 60 61 62 63 63 63 63 64 65 65 66 66 66 65 64 63 62 61 62 62 60 61 62 64 66 67 67 67 66 65 65 66 66 65 64 64 64 64 64 65 66 66 67 66
55 56 57 57 57 58 59 58 59 61 61 62 63 63 63 63 63 63 63 64 64 63 63 63 63 63 64 65 64 64 65 65 64 64 64 63 62 61 61 60 58 57 57 60 61 63 64 64 64 65 65 65 66 66 65 64 64 62 61 62 62 61 59 59 60 63 66 67 67 67 67 66 66 66 66 65 65 64 64 64 65 66 67 67 66
55 57 57 56 56 58 58 58 58 60 61 62 62 63 63 63 63 63 62 63 64 63 63 63 63 64 64 64 63 63 63 64 63 63 63 63 62 62 62 60 60 58 57 58 58 61 60 64 64 64 65 66 66 66 66 65 64 63 63 62 62 62 59 57 57 60 62 65 66 67 67 67 67 66 66 66 65 65 65 65 64 65 65 66 66
56 56 56 56 56 57 56 57 58 59 60 61 62 63 63 63 63 63 63 63 62 63 63 63 63 63 64 63 63 63 63 63 63 63 63 63 63 62 62 62 61 58 58 58 58 59 61 61 64 63 65 66 66 66 66 66 63 63 64 63 63 62 58 56 56 57 58 59 60 62 65 67 67 67 66 66 66 65 65 65 64 64 64 64 65
56 54 55 56 56 56 56 56 57 57 58 59 61 61 62 62 62 63 63 62 62 62 63 63 63 63 63 62 62 62 63 63 64 63 63 63 63 63 62 62 62 61 59 58 57 60 60 61 62 63 64 65 66 66 66 66 65 64 65 65 64 61 59 59 56 56 56 56 56 58 60 63 66 67 67 66 66 66 66 65 65 65 63 62 61
54 54 55 55 56 56 56 56 55 55 57 59 59 61 62 61 62 62 62 62 62 62 63 63 63 63 62 62 62 63 64 64 63 63 63 62 63 63 63 63 62 62 62 60 58 59 61 61 63 62 62 63 64 66 67 67 66 62 65 66 65 61 62 62 58 56 55 54 55 55 56 59 62 64 66 66 66 66 66 66 65 63 61 60 60
55 54 54 55 55 55 55 54 53 54 55 57 58 60 61 61 61 62 61 61 61 62 63 63 63 63 63 62 62 63 63 63 63 63 63 63 63 63 63 63 63 62 61 60 59 59 60 61 61 61 65 62 61 64 65 66 66 65 63 66 66 66 65 64 63 57 55 54 54 53 54 54 56 59 63 65 66 65 64 63 60 60 61 61 61
55 55 54 54 54 53 53 52 51 52 54 55 57 58 59 60 60 61 61 60 60 60 61 61 61 62 62 62 62 63 63 63 63 63 63 63 62 62 62 62 63 62 63 61 61 60 59 61 61 61 62 62 61 61 64 65 65 65 65 65 66 66 65 65 64 64 56 55 54 53 53 53 53 54 56 60 62 59 57 57 57 57 58 59 59
54 55 54 53 52 51 51 51 50 50 51 53 55 56 57 58 58 58 59 59 59 60 60 60 60 61 61 61 61 62 63 62 62 63 63 63 62 62 62 62 62 63 62 62 61 60 59 59 61 61 62 62 62 61 62 63 64 64 64 65 65 65 65 66 64 64 57 55 54 53 53 52 52 52 53 54 55 55 56 56 55 55 55 55 55
53 53 53 52 50 50 50 49 49 49 49 50 51 53 54 56 57 58 58 58 59 59 60 61 61 61 61 61 61 62 62 62 62 62 62 62 62 62 61 62 62 62 62 62 61 61 60 59 60 61 61 62 62 60 61 62 62 63 64 65 64 64 65 65 64 64 60 55 54 53 53 52 52 52 52 52 52 53 53 54 54 54 53 53 53
52 51 51 51 49 48 49 48 48 48 48 48 48 50 51 53 56 57 58 58 58 59 59 60 62 61 61 61 62 61 62 62 62 62 62 62 62 62 62 62 62 62 62 62 62 61 60 60 61 61 61 61 61 61 61 61 61 61 61 64 64 64 65 65 65 64 60 55 54 54 53 53 52 52 51 51 51 51 51 52 52 52 52 52 52
51 50 49 49 50 47 47 47 47 47 47 47 46 47 48 50 52 55 57 58 58 58 59 60 60 62 61 61 61 62 62 61 62 62 62 62 62 62 62 62 62 62 62 62 62 62 62 62 62 62 61 62 62 62 61 61 61 61 62 62 61 63 64 64 65 65 65 63 61 59 54 52 52 51 51 51 51 50 50 51 51 51 51 52 51
51 50 49 48 49 48 46 46 46 47 47 47 46 45 45 47 49 51 53 55 56 58 59 60 60 61 62 61 61 61 61 61 61 61 62 62 62 62 62 62 62 62 61 61 61 61 61 61 60 60 61 60 61 62 61 61 61 61 61 61 62 62 63 64 64 64 65 65 61 57 58 57 56 55 52 50 50 50 50 50 50 51 52 51 51
52 51 51 50 49 48 48 47 47 47 46 46 45 44 44 45 46 48 50 53 55 56 57 59 60 61 61 62 62 62 61 61 61 61 61 62 62 62 62 61 61 61 61 60 60 61 60 60 60 58 58 58 60 60 59 61 61 61 60 60 60 60 62 61 63 65 65 64 64 64 58 57 56 55 53 52 51 51 51 50 51 52 52 52 51
53 51 51 49 49 47 47 47 46 46 46 46 46 45 44 44 45 46 47 50 52 54 56 57 58 60 61 62 61 61 62 63 62 62 62 62 61 60 60 61 60 60 60 60 60 60 60 60 59 59 59 59 60 60 61 60 60 60 60 61 61 60 60 62 64 63 62 65 64 63 63 62 61 61 60 60 59 55 54 52 53 52 52 51 50
52 51 49 49 49 47 47 46 45 46 45 46 46 43 43 44 45 45 46 48 50 53 55 56 56 58 59 60 61 61 61 62 62 59 56 57 59 61 60 60 61 60 60 60 60 60 60 59 59 59 59 59 60 59 60 61 59 59 60 60 61 60 60 61 61 62 62 63 64 64 64 63 63 63 61 61 62 60 59 57 56 55 53 50 49
52 51 50 49 49 48 47 46 45 45 45 45 43 39 40 41 44 46 46 46 49 51 54 55 56 57 59 59 59 60 61 61 61 57 53 53 53 54 55 58 61 60 59 59 59 60 59 60 60 60 60 60 61 61 60 61 60 61 60 59 59 59 58 57 59 60 62 63 62 63 64 63 62 63 63 62 62 62 61 60 54 52 51 50 49
52 51 50 50 49 49 48 47 46 44 44 45 40 39 40 40 42 46 45 46 49 51 52 54 55 56 57 57 56 56 57 60 61 60 56 53 51 51 50 50 52 54 55 59 60 60 60 59 59 60 60 60 60 60 59 59 60 60 59 59 60 60 57 57 57 58 61 63 61 62 62 62 61 62 62 62 63 63 63 58 54 52 50 49 48
52 52 51 51 50 49 48 47 46 44 43 43 40 40 39 39 39 43 45 47 48 51 52 53 55 56 56 55 55 54 54 58 57 56 59 57 52 50 50 51 50 47 43 44 48 60 60 59 59 59 60 60 59 59 59 59 58 59 59 59 58 58 59 59 58 56 59 61 61 59 59 60 61 61 61 62 62 63 63 57 53 51 50 49 48
52 51 52 51 50 49 49 47 44 44 42 43 39 39 39 39 39 41 46 47 49 51 52 53 53 52 52 53 52 52 52 52 52 54 57 58 57 57 56 56 55 54 51 48 48 49 55 60 60 59 58 58 58 58 58 57 58 58 57 58 57 58 57 59 59 59 59 61 61 58 58 60 60 61 61 61 63 62 62 58 52 51 49 49 48
51 50 50 50 50 50 47 44 43 43 42 41 39 39 39 39 40 46 48 51 51 51 51 51 51 50 50 50 51 51 51 51 51 49 56 58 57 57 56 54 53 53 52 52 53 56 56 57 57 57 56 56 56 55 55 56 57 57 58 58 58 59 59 59 60 58 60 60 61 61 58 59 59 60 60 61 61 61 62 58 52 49 48 48 48
52 51 50 50 50 48 45 43 42 42 42 40 39 39 39 39 43 52 51 51 51 51 51 52 52 51 50 49 49 49 49 50 48 42 50 58 56 55 54 53 52 52 52 52 44 47 52 52 52 52 52 51 47 51 50 52 53 55 57 58 59 60 60 59 59 58 58 58 60 60 58 58 58 59 60 60 60 59 60 60 53 48 48 48 48
50 50 49 49 48 47 46 44 44 42 41 41 39 38 39 39 46 50 50 50 49 49 49 49 50 52 52 50 48 48 48 48 44 40 46 55 56 54 53 52 52 51 52 53 47 44 44 44 44 44 44 44 44 44 44 44 48 51 56 57 57 57 58 57 56 55 55 56 54 55 58 58 58 59 59 58 57 57 58 59 59 51 49 49 49
48 49 49 47 46 47 45 44 47 43 42 42 40 38 39 39 46 50 49 48 48 48 47 48 48 49 50 53 51 47 47 46 40 40 44 54 55 54 53 51 51 51 51 52 53 52 46 45 45 44 44 45 45 45 44 44 46 51 55 55 56 56 56 55 55 55 56 54 51 52 55 57 57 56 57 56 54 53 55 57 58 57 53 53 50
49 50 48 46 46 44 44 44 46 44 44 42 40 38 39 39 46 49 50 50 48 47 47 46 47 46 46 48 48 45 45 43 40 41 43 52 54 54 53 52 51 50 50 51 53 52 52 51 52 51 49 50 52 51 50 45 46 50 51 53 55 56 55 55 56 56 55 55 50 50 54 55 56 55 56 56 54 55 55 57 57 58 58 57 57